Location: Demmingen
(48.6757°N, 10.4375°E)
Time: 18:39:57
(UTC+00:00)

Cosmos 1745 Rocket - Pass Details

Date: 14 August 2024
Orbit: 952 x 997 km, 83.0° (Epoch: 11 September)

Event Time Altitude Azimuth Distance (km) Brightness Sun altitude
Rises 02:31:03 0° 349° (N) 3,641 7.5 -14.6°
Reaches altitude 10° 02:33:32 10° 348° (NNW) 2,693 6.7 -14.3°
Maximum altitude 02:39:40 74° 265° (W) 998 3.9 -13.5°
Drops below altitude 10° 02:45:48 10° 181° (S) 2,696 5.9 -12.7°
Sets 02:48:19 0° 180° (S) 3,644 6.6 -12.4°
